Location: Newark
(49.3808°N, 3.1844°E)
Time: 00:32:40
(UTC+00:00)

Vanguard 1 Rocket - Pass Details

Date: 16 November 2019
Orbit: 650 x 4226 km, 34.3° (Epoch: 05 December)

Event Time Altitude Azimuth Distance (km) Brightness Sun altitude
Rises 07:43:23 0° 250° (WSW) 3,421 10.0 5.2°
Reaches altitude 10° 07:46:13 10° 232° (SW) 2,774 9.8 5.6°
Maximum altitude 07:50:53 20° 187° (S) 2,651 10.3 6.2°
Drops below altitude 10° 07:57:37 10° 146° (SE) 4,196 12.7 7.1°
Sets 08:03:23 0° 133° (SE) 5,920 14.2 7.8°
